Torna al catalogo

BREEZE-M DEB

TANK

AttivoHEO
NORAD 33437·DEBRIS·🇷🇺 Russia

Lanciato Nov 5, 2008 da Baikonur Cosmodrome

Loading…

Prossimi Passaggi (prossime 24 ore)

TLE

AggiornatoSource: Space-Track

Epoca: Sep 14, 2026, 05:39 UTC

1 33437U 08057B   26257.23556987  .00003418  00000-0  77964-3 0  9999
2 33437  49.5202 196.5320 4896962  45.1620 345.5299  5.76396375364856

Traccia BREEZE-M DEB in tempo reale con AllMySat

Download on the App Store